Wenatchee, WA
on Wednesday, November 7, 2012

Wednesday
Previous Day Next Day
Daily Summary
 ActualAverageRecord
Temperature
Mean Temperature °F 37°F  
Max Temperature 54°F 45°F 60°F (2006)
Min Temperature 35°F 30°F 16°F (2003)
Degree Days
Heating Degree Days 20 28  
Month to date heating degree days 104 186  
Since 1 July heating degree days 551 1142  
Cooling Degree Days 0 0  
Month to date cooling degree days 0 0  
Year to date cooling degree days 888 249  
Moisture
Dew Point 29°F   
Average Humidity 57    
Maximum Humidity 75    
Minimum Humidity 38    
Precipitation
Precipitation 0.00 in 0.07 in 0.85 in (1995)
Month to date precipitation 0.02 0.43  
Year to date precipitation 7.00 12.77  
Snow
Snow 0.00 in 0.10 in in ()
Month to date snowfall 0.0 0.4  
Since 1 July snowfall 0.0 0.5  
Since 1 September snowfall 0.0 0.5  
Snow Depth 0.00 in   
Wind
Wind Speed 5 mph   
Max Wind Speed 15 mph   
Max Gust Speed mph   
Visibility 10 miles   
Events     

Key: T is trace of precipitation, MM is missing value
Source: NWS Daily Summary
Time(PST)TemperatureDew PointHumidity Pressure Visibility Wind DirectionWind SpeedGust SpeedPrecipitationEvents Conditions
12:55 AM 52.0°F 28.9°F 41% 29.91 in 10.0 miles West 12.7 mph - N/A   Clear
1:55 AM 46.9°F 30.9°F 54% 29.92 in 10.0 miles NNE 4.6 mph - N/A   Clear
2:55 AM 46.9°F 28.9°F 50% 29.93 in 10.0 miles Calm Calm - N/A   Clear
3:55 AM 44.1°F 28.9°F 55% 29.95 in 10.0 miles NNE 3.5 mph - N/A   Clear
4:55 AM 39.9°F 28.9°F 65% 29.97 in 10.0 miles NE 4.6 mph - N/A   Clear
5:55 AM 46.0°F 26.1°F 46% 29.99 in 10.0 miles Calm Calm - N/A   Partly Cloudy
6:55 AM 44.1°F 26.1°F 49% 30.01 in 10.0 miles NNW 5.8 mph - N/A   Clear
7:55 AM 45.0°F 28.9°F 53% 30.03 in 10.0 miles North 4.6 mph - N/A   Clear
8:55 AM 48.0°F 30.0°F 50% 30.04 in 10.0 miles West 5.8 mph - N/A   Clear
9:55 AM 50.0°F 33.1°F 52% 30.04 in 10.0 miles WSW 6.9 mph - N/A   Clear
10:55 AM 52.0°F 28.9°F 41% 30.04 in 10.0 miles North - - N/A   Clear
11:55 AM 53.1°F 28.0°F 38% 30.03 in 10.0 miles NW 5.8 mph - N/A   Mostly Cloudy
12:55 PM 52.0°F 28.0°F 40% 30.03 in 10.0 miles NW 8.1 mph - N/A   Clear
1:55 PM 52.0°F 28.9°F 41% 30.04 in 10.0 miles WNW 4.6 mph - N/A   Mostly Cloudy
3:55 PM 51.1°F 28.9°F 43% 30.03 in 10.0 miles NW 9.2 mph - N/A   Partly Cloudy
4:55 PM 46.9°F 30.0°F 52% 30.03 in 10.0 miles NNW 8.1 mph - N/A   Clear
5:55 PM 44.1°F 30.0°F 58% 30.03 in 10.0 miles NW 8.1 mph - N/A   Clear
6:55 PM 42.1°F 30.0°F 62% 30.03 in 10.0 miles Calm Calm - N/A   Clear
7:55 PM 43.0°F 28.0°F 56% 30.00 in 10.0 miles NNW 5.8 mph - N/A   Clear
8:55 PM 41.0°F 28.0°F 60% 30.01 in 10.0 miles Calm Calm - N/A   Clear
9:55 PM 39.9°F 28.0°F 63% 30.00 in 10.0 miles WNW 6.9 mph - N/A   Clear
10:55 PM 36.0°F 28.0°F 73% 29.98 in 10.0 miles West 4.6 mph - N/A   Clear
11:55 PM 37.0°F 28.9°F 73% 29.97 in 10.0 miles WNW 8.1 mph - N/A   Overcast
Moon Phase
Nov. 07 Nov. 13 Nov. 20 Nov. 28 Dec. 06
Sunrise:06:54 AM (PST) Moon Rise:No Moon Rise/
Sunset:04:34 PM (PST) Moon Set:01:11 PM (PST)11/7

Copyright © 2014 The Weather Underground, Inc.